Renton, WA
on Wednesday, December 26, 2012

Wednesday
Previous Day Next Day
Daily Summary
 ActualAverage (KSEA)Record (KSEA)
Temperature
Mean Temperature °F / °C 40°F / 4°C  
Max Temperature 46°F / 8°C 45°F / 7°C 62°F / 16°C (1980)
Min Temperature 41°F / 5°C 36°F / 2°C 22°F / -5°C (1948)
Degree Days
Heating Degree Days 22 25  
Month to date heating degree days 635  
Since 1 July heating degree days 1818  
Cooling Degree Days 0 0  
Month to date cooling degree days 0  
Year to date cooling degree days 189  
Moisture
Dew Point 38°F / 3°C   
Average Humidity 80    
Maximum Humidity 89    
Minimum Humidity 65    
Precipitation
Precipitation 0.18 in / 4.57 cm 0.17 in / 4.32 cm 2.14 in / 5.44 cm (1974)
Month to date precipitation 4.54  
Year to date precipitation 36.68  
Snow
Snow 0.00 in / 0.00 cm in / cm 8.80 in / 22.35 cm (1974)
Month to date snowfall  
Since 1 July snowfall  
Snow Depth in / cm   
Wind
Wind Speed 4 mph / 6 km/h   
Max Wind Speed 12 mph / 19 km/h   
Max Gust Speed 21 mph / 34 km/h   
Visibility 9 miles / 15 kilometers   
Events Rain   

Key: T is trace of precipitation, MM is missing value
Source: NWS Daily Summary
Time(PST)TemperatureDew PointHumidity Pressure Visibility Wind DirectionWind SpeedGust SpeedPrecipitationEvents Conditions
12:53 AM 44.1°F / 6.7°C 33.1°F / 0.6°C 65% 29.72 in / 1006.2 hPa 10.0 miles / 16.1 kilometers Calm Calm - 0.01 in / 0.3 cm Rain Light Rain
1:53 AM 43.0°F / 6.1°C 36.0°F / 2.2°C 76% 29.72 in / 1006.4 hPa 10.0 miles / 16.1 kilometers Calm Calm - 0.00 in / 0.0 cm   Overcast
2:53 AM 42.1°F / 5.6°C 36.0°F / 2.2°C 79% 29.73 in / 1006.6 hPa 10.0 miles / 16.1 kilometers Calm Calm - 0.01 in / 0.3 cm Rain Light Rain
3:53 AM 42.8°F / 6.0°C 37.4°F / 3.0°C 81% 29.73 in / 1006.7 hPa 10.0 miles / 16.1 kilometers Calm Calm - N/A Rain Light Rain
4:28 AM 41.0°F / 5.0°C 35.6°F / 2.0°C 81% 29.73 in / 1006.7 hPa 7.0 miles / 11.3 kilometers Calm Calm - 0.04 in / 1.0 cm Rain Light Rain
4:53 AM 41.0°F / 5.0°C 36.0°F / 2.2°C 82% 29.75 in / 1007.3 hPa 8.0 miles / 12.9 kilometers East 6.9 mph / 11.1 km/h - 0.07 in / 1.8 cm Rain Light Rain
5:02 AM 41.0°F / 5.0°C 35.6°F / 2.0°C 81% 29.73 in / 1006.7 hPa 8.0 miles / 12.9 kilometers ESE 4.6 mph / 7.4 km/h - 0.01 in / 0.3 cm Rain Light Rain
5:53 AM 41.0°F / 5.0°C 35.1°F / 1.7°C 79% 29.75 in / 1007.3 hPa 10.0 miles / 16.1 kilometers ESE 8.1 mph / 13.0 km/h - 0.02 in / 0.5 cm Rain Light Rain
6:53 AM 41.0°F / 5.0°C 36.0°F / 2.2°C 82% 29.75 in / 1007.5 hPa 10.0 miles / 16.1 kilometers ESE 5.8 mph / 9.3 km/h - 0.00 in / 0.0 cm   Overcast
7:14 AM 41.0°F / 5.0°C 35.6°F / 2.0°C 81% 29.74 in / 1007.0 hPa 10.0 miles / 16.1 kilometers SSW 5.8 mph / 9.3 km/h - N/A   Overcast
7:53 AM 41.0°F / 5.0°C 36.0°F / 2.2°C 82% 29.77 in / 1007.9 hPa 10.0 miles / 16.1 kilometers ESE 3.5 mph / 5.6 km/h - 0.00 in / 0.0 cm Rain Light Rain
8:53 AM 42.1°F / 5.6°C 36.0°F / 2.2°C 79% 29.79 in / 1008.6 hPa 10.0 miles / 16.1 kilometers SE 5.8 mph / 9.3 km/h - 0.00 in / 0.0 cm   Overcast
9:53 AM 43.0°F / 6.1°C 37.0°F / 2.8°C 80% 29.80 in / 1009.1 hPa 10.0 miles / 16.1 kilometers SSE 5.8 mph / 9.3 km/h - N/A   Overcast
10:53 AM 44.1°F / 6.7°C 37.9°F / 3.3°C 79% 29.81 in / 1009.3 hPa 10.0 miles / 16.1 kilometers ESE 4.6 mph / 7.4 km/h - N/A   Overcast
11:53 AM 46.0°F / 7.8°C 39.0°F / 3.9°C 76% 29.81 in / 1009.2 hPa 8.0 miles / 12.9 kilometers SE 3.5 mph / 5.6 km/h - 0.00 in / 0.0 cm Rain Light Rain
12:53 PM 46.0°F / 7.8°C 39.0°F / 3.9°C 76% 29.80 in / 1009.1 hPa 10.0 miles / 16.1 kilometers Variable 3.5 mph / 5.6 km/h - 0.00 in / 0.0 cm   Overcast
1:53 PM 45.0°F / 7.2°C 39.9°F / 4.4°C 82% 29.81 in / 1009.2 hPa 4.0 miles / 6.4 kilometers Calm Calm - 0.01 in / 0.3 cm Rain Light Rain
2:53 PM 45.0°F / 7.2°C 41.0°F / 5.0°C 86% 29.81 in / 1009.5 hPa 7.0 miles / 11.3 kilometers ESE 3.5 mph / 5.6 km/h - 0.02 in / 0.5 cm Rain Light Rain
3:53 PM 46.9°F / 8.3°C 39.9°F / 4.4°C 77% 29.83 in / 1009.9 hPa 10.0 miles / 16.1 kilometers SSE 8.1 mph / 13.0 km/h - 0.01 in / 0.3 cm Rain Light Rain
4:17 PM 44.6°F / 7.0°C 41.0°F / 5.0°C 87% 29.81 in / 1009.4 hPa 10.0 miles / 16.1 kilometers ESE 4.6 mph / 7.4 km/h - 0.00 in / 0.0 cm   Overcast
4:53 PM 44.1°F / 6.7°C 41.0°F / 5.0°C 89% 29.83 in / 1010.2 hPa 10.0 miles / 16.1 kilometers ESE 5.8 mph / 9.3 km/h - 0.01 in / 0.3 cm Rain Light Rain
5:53 PM 46.0°F / 7.8°C 39.0°F / 3.9°C 76% 29.84 in / 1010.5 hPa 10.0 miles / 16.1 kilometers SSE 8.1 mph / 13.0 km/h - 0.00 in / 0.0 cm Rain Light Rain
6:53 PM 46.0°F / 7.8°C 39.0°F / 3.9°C 76% 29.85 in / 1010.6 hPa 10.0 miles / 16.1 kilometers SSE 8.1 mph / 13.0 km/h 17.3 mph / 27.8 km/h 0.00 in / 0.0 cm Rain Light Rain
7:53 PM 45.0°F / 7.2°C 39.0°F / 3.9°C 80% 29.86 in / 1011.1 hPa 10.0 miles / 16.1 kilometers SSE 9.2 mph / 14.8 km/h 17.3 mph / 27.8 km/h 0.01 in / 0.3 cm Rain Light Rain
8:53 PM 45.0°F / 7.2°C 39.0°F / 3.9°C 80% 29.87 in / 1011.5 hPa 10.0 miles / 16.1 kilometers SSE 11.5 mph / 18.5 km/h 20.7 mph / 33.3 km/h 0.00 in / 0.0 cm Rain Light Rain
9:53 PM 45.0°F / 7.2°C 39.0°F / 3.9°C 80% 29.89 in / 1012.2 hPa 10.0 miles / 16.1 kilometers SSE 10.4 mph / 16.7 km/h - 0.00 in / 0.0 cm   Overcast
10:53 PM 45.0°F / 7.2°C 37.9°F / 3.3°C 76% 29.92 in / 1013.1 hPa 10.0 miles / 16.1 kilometers SSE 8.1 mph / 13.0 km/h 16.1 mph / 25.9 km/h 0.00 in / 0.0 cm Rain Light Rain
11:53 PM 45.0°F / 7.2°C 39.0°F / 3.9°C 80% 29.94 in / 1013.6 hPa 7.0 miles / 11.3 kilometers SSE 9.2 mph / 14.8 km/h - 0.01 in / 0.3 cm Rain Light Rain
Moon Phase
Dec. 26 Dec. 28 Jan. 04 Jan. 11 Jan. 18
Sunrise:07:55 AM (PST) Moon Rise:03:23 PM (PST)12/26
Sunset:04:23 PM (PST) Moon Set:06:21 AM (PST)12/26

Copyright © 2014 The Weather Underground, Inc.